TimeCST,TemperatureF,Dew PointF,Humidity,Sea Level PressureIn,VisibilityMPH,Wind Direction,Wind SpeedMPH,Gust SpeedMPH,PrecipitationIn,Events,Conditions,WindDirDegrees,DateUTC
12:54 AM,25.0,12.9,60,30.29,10.0,WNW,13.8,19.6,N/A,,Clear,300,2013-02-20 06:54:00
1:54 AM,24.1,10.9,57,30.30,10.0,WNW,6.9,-,N/A,,Clear,300,2013-02-20 07:54:00
2:54 AM,24.1,10.0,55,30.29,10.0,NW,8.1,-,N/A,,Clear,310,2013-02-20 08:54:00
3:54 AM,23.0,10.9,60,30.31,10.0,NW,6.9,-,N/A,,Clear,310,2013-02-20 09:54:00
4:54 AM,21.9,8.1,55,30.32,10.0,NNW,6.9,-,N/A,,Clear,330,2013-02-20 10:54:00
5:54 AM,21.2,8.6,58,30.31,10.0,NNW,6.9,-,N/A,,Clear,340,2013-02-20 11:54:00
6:54 AM,19.9,10.0,65,30.36,10.0,North,3.5,-,N/A,,Clear,350,2013-02-20 12:54:00
7:54 AM,21.9,10.9,63,30.35,10.0,North,6.9,-,N/A,,Clear,350,2013-02-20 13:54:00
8:54 AM,24.1,10.9,57,30.38,10.0,WNW,5.8,-,N/A,,Clear,300,2013-02-20 14:54:00
9:54 AM,25.0,12.0,58,30.40,10.0,WNW,6.9,-,N/A,,Partly Cloudy,290,2013-02-20 15:54:00
10:54 AM,26.1,12.0,55,30.41,10.0,WNW,5.8,-,N/A,,Clear,290,2013-02-20 16:54:00
11:54 AM,27.0,12.9,56,30.39,10.0,Variable,6.9,-,N/A,,Clear,0,2013-02-20 17:54:00
12:54 PM,28.4,14.0,55,30.37,10.0,NNW,8.1,-,N/A,,Clear,330,2013-02-20 18:54:00
1:54 PM,28.9,15.1,56,30.37,10.0,NNW,8.1,-,N/A,,Clear,330,2013-02-20 19:54:00
2:54 PM,28.9,15.1,56,30.35,10.0,North,5.8,-,N/A,,Clear,10,2013-02-20 20:54:00
3:54 PM,28.0,14.0,56,30.33,10.0,NNE,6.9,-,N/A,,Clear,30,2013-02-20 21:54:00
4:54 PM,27.0,14.0,58,30.33,10.0,NNE,8.1,-,N/A,,Clear,20,2013-02-20 22:54:00
5:54 PM,27.0,15.1,61,30.32,10.0,NNE,9.2,-,N/A,,Clear,20,2013-02-20 23:54:00
6:54 PM,26.1,14.0,60,30.34,10.0,North,5.8,-,N/A,,Clear,10,2013-02-21 00:54:00
7:54 PM,25.0,15.1,66,30.34,10.0,NNE,3.5,-,N/A,,Clear,20,2013-02-21 01:54:00
8:54 PM,24.1,15.1,69,30.33,10.0,NE,5.8,-,N/A,,Partly Cloudy,40,2013-02-21 02:54:00
9:54 PM,24.1,15.1,69,30.35,10.0,Calm,Calm,-,N/A,,Clear,0,2013-02-21 03:54:00
10:54 PM,23.0,14.0,68,30.34,10.0,Calm,Calm,-,N/A,,Clear,0,2013-02-21 04:54:00
11:54 PM,21.9,14.0,72,30.34,10.0,NNE,3.5,-,N/A,,Clear,30,2013-02-21 05:54:00